Carlsbad, NM

12:55 AM MST on December 11, 2017 (GMT -0700)
Cavern City

Weather History for KCNM - July, 2014

Change the Weather History Date:

Wednesday, July 23, 2014

  Actual Average Record
Temperature  
Mean Temperature 87 °F -  
Max Temperature 100 °F 94 °F 105 °F (1958)
Min Temperature 75 °F 67 °F 60 °F (1961)
Cooling Degree Days 22    
Growing Degree Days 37 (Base 50)    
Moisture  
Dew Point 51 °F    
Average Humidity 31    
Maximum Humidity 52    
Minimum Humidity 16    
Precipitation  
Precipitation 0.00 in - - ()
Sea Level Pressure  
Sea Level Pressure 30.00 in    
Wind  
Wind Speed 5 mph (ESE)    
Max Wind Speed 15 mph    
Max Gust Speed 24 mph    
Visibility 10 miles    
Events      
Averages and records for this station are not official NWS values.
T = Trace of Precipitation, MM = Missing Value Source: NWS Daily Summary

Daily Weather History Graph

Daily Weather History Graph

Search for Another Location

Airport or City:

Trip Planner

Search our weather history database for the weather conditions in past years. The results will help you decide how hot, cold, wet, or windy it might be!

Date:

Astronomy

Jul. 23, 2014 Rise Set
Actual Time 6:05 AM MDT 8:00 PM MDT
Civil Twilight 5:38 AM MDT 8:28 PM MDT
Nautical Twilight 5:05 AM MDT 9:01 PM MDT
Astronomical Twilight 4:30 AM MDT 9:36 PM MDT
Moon 3:25 AM MDT (7/23) 5:32 PM MDT (7/23)
Length of Visible Light 14h 49m
Length of Day
13h 55m
Waning Crescent, 9% of the Moon is Illuminated
Jul 23
Waning Crescent
Jul 26
New
Aug 3
First Quarter
Aug 10
Full
Aug 17
Last Quarter

Hourly Weather History & Observations

Time (MDT) Temp. Heat Index Dew Point Humidity Pressure Visibility Wind Dir Wind Speed Gust Speed Precip Events Conditions
12:53 AM 82.9 °F 82.0 °F 55.0 °F 38% 29.98 in 10.0 mi ESE 6.9 mph - N/A   Clear
1:53 AM 80.1 °F 80.1 °F 55.0 °F 42% 29.99 in 10.0 mi Calm Calm - N/A   Clear
2:53 AM 80.1 °F 80.1 °F 55.0 °F 42% 29.98 in 10.0 mi ESE 3.5 mph - N/A   Clear
3:53 AM 77.0 °F - 55.0 °F 47% 29.99 in 10.0 mi Calm Calm - N/A   Clear
4:53 AM 78.1 °F - 57.0 °F 48% 30.00 in 10.0 mi Calm Calm - N/A   Partly Cloudy
5:53 AM 75.9 °F - 55.9 °F 50% 30.01 in 10.0 mi Calm Calm - N/A   Clear
6:53 AM 77.0 °F - 57.9 °F 52% 30.02 in 10.0 mi NNW 3.5 mph - N/A   Clear
7:53 AM 82.0 °F 82.0 °F 57.9 °F 44% 30.04 in 10.0 mi North 4.6 mph - N/A   Clear
8:53 AM 84.0 °F 83.8 °F 59.0 °F 43% 30.06 in 10.0 mi Calm Calm - N/A   Clear
9:53 AM 87.1 °F 86.5 °F 59.0 °F 39% 30.05 in 10.0 mi ENE 5.8 mph - N/A   Clear
10:53 AM 90.0 °F 88.8 °F 57.9 °F 34% 30.04 in 10.0 mi Variable 6.9 mph - N/A   Clear
11:53 AM 95.0 °F 92.7 °F 54.0 °F 25% 30.02 in 10.0 mi East 10.4 mph 19.6 mph N/A   Clear
12:53 PM 95.0 °F - 51.1 °F 22% 30.01 in 10.0 mi ENE 4.6 mph - N/A   Clear
1:53 PM 98.1 °F - 46.0 °F 17% 30.00 in 10.0 mi ESE 13.8 mph 24.2 mph N/A   Scattered Clouds
2:53 PM 97.0 °F - 44.1 °F 16% 29.97 in 10.0 mi ESE 10.4 mph - N/A   Scattered Clouds
3:53 PM 98.1 °F - 45.0 °F 16% 29.95 in 10.0 mi ESE 10.4 mph - N/A   Partly Cloudy
4:53 PM 99.0 °F - 45.0 °F 16% 29.92 in 10.0 mi SE 15.0 mph 24.2 mph N/A   Scattered Clouds
5:53 PM 97.0 °F - 44.1 °F 16% 29.91 in 10.0 mi ESE 6.9 mph - N/A   Scattered Clouds
6:53 PM 97.0 °F - 43.0 °F 16% 29.90 in 10.0 mi ESE 10.4 mph - N/A   Scattered Clouds
7:53 PM 93.9 °F - 42.1 °F 17% 29.90 in 10.0 mi ESE 8.1 mph - N/A   Partly Cloudy
8:53 PM 87.8 °F - 44.6 °F 22% 30.12 in 10.0 mi ESE 5.8 mph - N/A   Clear
9:53 PM 87.8 °F - 46.4 °F 24% 30.14 in 10.0 mi ESE 8.1 mph - N/A   Mostly Cloudy
10:53 PM 87.1 °F - 50.0 °F 28% 29.97 in 10.0 mi SE 8.1 mph - N/A   Mostly Cloudy
11:53 PM 87.1 °F 84.9 °F 53.1 °F 31% 29.97 in 10.0 mi SSE 5.8 mph - N/A   Overcast